Date,TemperatureHighF,TemperatureAvgF,TemperatureLowF,DewpointHighF,DewpointAvgF,DewpointLowF,HumidityHigh,HumidityAvg,HumidityLow,PressureMaxIn,PressureMinIn,WindSpeedMaxMPH,WindSpeedAvgMPH,GustSpeedMaxMPH,PrecipitationSumIn
2013-1-1,29.2,18.6,6.4,25.3,12.5,-0.1,90,77,67,29.93,29.69,27,9,28,0.00
2013-1-2,16.2,7.2,-6.6,11.6,1.4,-10.3,89,77,64,30.21,29.90,22,7,22,0.00
2013-1-3,15.0,1.7,-9.1,11.8,-5.0,-12.9,88,74,53,30.24,30.02,11,3,13,0.00
2013-1-4,29.4,25.3,14.8,24.8,20.7,11.8,93,83,70,30.02,29.81,29,11,31,0.00
2013-1-5,29.2,25.7,20.0,25.2,17.8,13.5,94,72,57,30.25,29.83,29,7,30,0.00
2013-1-6,32.3,26.3,19.0,29.0,22.5,13.3,92,86,72,30.21,29.94,14,4,15,0.00
2013-1-7,31.7,24.0,18.3,28.9,17.4,11.6,95,76,62,30.38,29.97,20,5,21,0.00
2013-1-8,38.7,30.1,19.3,22.1,20.2,12.8,82,67,49,30.39,30.26,21,6,23,0.00
2013-1-9,39.0,33.0,25.4,31.2,24.6,20.6,83,71,58,30.39,29.95,31,5,31,0.00
2013-1-10,37.0,32.7,27.2,31.4,24.9,22.5,95,73,62,30.56,30.01,33,10,34,0.00
2013-1-11,34.4,29.2,23.5,30.8,24.4,20.7,96,83,63,30.56,30.19,18,3,27,0.00
2013-1-12,39.1,35.1,31.2,38.3,34.3,30.1,98,97,96,30.22,30.12,13,2,13,0.01
2013-1-13,45.9,39.4,34.0,45.4,38.8,33.5,98,98,95,30.16,29.95,10,2,20,0.01
2013-1-14,49.9,40.6,30.4,47.8,35.1,23.2,98,82,48,30.26,29.84,25,7,25,0.00
2013-1-15,30.4,28.6,26.8,24.1,22.1,18.8,84,77,70,30.33,30.22,9,2,9,0.00
2013-1-16,28.9,27.4,25.8,27.4,25.3,20.5,95,92,77,30.26,29.80,12,2,14,0.00
2013-1-17,32.3,24.0,9.4,27.7,17.8,-0.2,93,77,52,30.12,29.81,35,8,35,0.00
2013-1-18,15.7,8.9,0.4,5.6,-3.7,-11.5,70,57,39,30.42,30.08,23,5,27,0.00
2013-1-19,39.1,27.9,15.5,24.4,16.7,5.6,87,63,52,30.34,29.83,22,5,22,0.00
2013-1-20,40.3,31.4,15.8,31.1,18.3,-1.7,87,59,43,29.90,29.49,46,13,46,0.00
2013-1-21,20.0,14.9,9.3,14.2,3.9,-4.2,91,63,44,30.05,29.80,37,6,37,0.00
2013-1-22,15.0,9.6,1.3,12.6,3.6,-7.4,91,77,46,30.06,29.79,28,7,30,0.00
2013-1-23,2.2,-3.8,-9.5,-5.8,-12.9,-17.1,84,66,42,30.18,30.05,31,6,32,0.00
2013-1-24,7.9,-2.8,-13.3,-8.5,-14.3,-19.5,77,59,38,30.34,30.16,36,10,40,0.00
2013-1-25,12.1,3.4,-4.9,1.7,-7.8,-10.1,84,61,36,30.39,30.14,18,6,22,0.00
2013-1-26,13.0,6.3,1.2,2.0,-2.2,-10.3,87,70,37,30.30,30.10,27,7,30,0.00
2013-1-27,19.2,10.1,3.7,2.9,-4.3,-9.3,87,55,28,30.53,30.30,23,7,24,0.00
2013-1-28,19.4,13.7,7.4,16.2,5.7,-8.3,92,72,47,30.52,30.07,14,3,15,0.00
2013-1-29,29.6,23.6,16.9,28.6,21.4,15.0,96,91,83,30.24,30.09,15,2,15,0.00
2013-1-30,54.3,45.4,29.6,52.3,44.0,28.6,98,95,84,30.13,29.35,29,7,29,0.13
2013-1-31,56.5,37.6,19.4,54.5,30.1,9.7,97,75,52,29.48,28.83,51,16,51,0.27
2013-2-1,20.7,16.5,11.0,17.5,9.1,5.0,92,73,54,30.08,29.48,39,10,39,0.00
2013-2-2,18.3,13.0,4.9,13.8,7.8,1.3,92,80,61,30.22,30.07,15,4,16,0.00
2013-2-3,24.8,16.6,8.2,15.4,11.6,5.9,92,81,63,30.08,29.75,9,2,9,0.00
2013-2-4,21.6,15.8,10.2,12.2,4.4,-2.2,88,62,38,29.92,29.73,43,11,43,0.00
2013-2-5,23.4,13.6,2.4,11.1,2.0,-5.6,76,60,42,30.06,29.91,16,4,16,0.00
2013-2-6,29.4,21.5,9.9,20.7,13.1,-5.2,92,71,43,30.33,29.94,28,7,30,0.00
2013-2-7,18.1,11.0,2.6,1.3,-3.4,-6.3,69,53,40,30.57,30.33,20,5,21,0.00
2013-2-8,17.7,15.1,12.9,14.5,10.0,-2.8,92,81,43,30.51,29.88,42,14,43,0.00
2013-2-9,16.0,10.3,5.6,12.5,3.0,-99.9,91,76,63,30.34,29.85,35,-2,36,0.00
2013-2-10,27.9,13.7,3.4,3.1,-19.2,-99.9,75,39,28,30.52,30.34,12,-185,12,0.00
2013-2-11,34.7,24.3,21.1,33.8,5.4,-99.9,97,68,27,30.36,29.63,23,-118,23,0.00
2013-2-12,35.6,32.4,28.8,32.3,27.0,23.4,97,81,71,29.85,29.62,39,11,39,0.00
2013-2-13,34.4,30.1,26.2,23.4,20.3,18.3,80,67,55,29.86,29.75,12,3,12,0.00
2013-2-14,38.6,29.2,24.8,36.8,20.4,18.8,94,70,56,29.98,29.73,17,3,17,0.06
2013-2-15,42.5,34.6,27.0,28.8,23.7,18.3,88,65,49,29.97,29.89,23,5,26,0.00
2013-2-16,31.6,25.0,16.9,24.3,17.0,3.1,94,72,51,29.98,29.83,20,5,20,0.00
2013-2-17,16.9,11.5,7.3,5.0,2.0,-0.9,76,65,54,29.83,29.54,33,13,37,0.00
2013-2-18,22.5,14.3,5.5,1.6,-3.7,-8.1,78,48,26,30.18,29.77,30,12,31,0.00
2013-2-19,40.2,26.8,14.0,32.3,12.6,-7.1,96,58,35,30.20,29.60,29,4,32,0.00
2013-2-20,32.6,23.8,18.4,31.8,18.3,11.5,97,80,62,29.75,29.57,29,10,32,0.00
2013-2-21,20.2,16.2,11.0,16.3,11.1,7.4,92,80,66,30.35,29.75,28,9,28,0.00
2013-2-22,34.7,27.1,19.3,20.9,18.6,16.1,89,71,54,30.47,30.31,17,4,18,0.00
2013-2-23,29.5,28.3,26.5,28.0,24.7,18.7,95,87,68,30.32,29.96,20,4,20,0.00
2013-2-24,32.0,29.8,27.2,31.0,28.6,26.2,97,95,93,29.96,29.78,19,6,21,0.01
2013-2-25,32.1,29.3,27.3,29.8,27.9,26.3,96,94,90,30.26,29.93,10,2,10,0.00
2013-2-26,35.7,31.4,27.8,31.9,29.1,26.7,97,91,81,30.35,30.16,27,4,27,0.00
2013-2-27,32.1,30.1,28.5,31.1,28.6,26.3,96,94,87,30.17,29.64,52,22,57,0.00
2013-2-28,37.7,32.8,27.7,34.7,31.1,26.7,97,93,85,29.64,29.57,21,2,23,0.03
2013-3-1,33.1,30.2,27.7,32.1,27.0,24.6,96,88,75,29.73,29.58,18,6,20,0.00
2013-3-2,32.2,27.4,22.1,25.9,24.1,20.6,94,88,70,29.73,29.67,16,6,16,0.00
2013-3-3,30.4,24.8,20.6,25.6,22.1,19.1,94,90,82,29.71,29.63,17,6,17,0.00
2013-3-4,28.5,23.7,21.5,23.5,20.4,18.6,94,87,79,29.86,29.64,24,9,24,0.00
2013-3-5,36.9,28.8,21.6,27.7,23.9,18.8,89,82,68,30.12,29.86,18,4,18,0.00
2013-3-6,31.7,30.0,27.8,29.4,26.7,22.9,96,87,79,30.21,30.09,36,10,43,0.00
2013-3-7,32.8,29.4,26.4,25.9,23.7,21.4,94,79,71,30.19,30.11,22,6,24,0.00
2013-3-8,37.2,30.2,25.1,25.1,23.2,21.9,95,76,56,30.29,30.08,23,7,23,0.00
2013-3-9,49.8,36.8,24.8,22.8,19.0,11.8,85,53,23,30.35,30.26,17,4,17,0.00
2013-3-10,51.0,38.8,28.9,29.3,25.4,19.3,77,60,37,30.38,30.22,19,4,19,0.00
2013-3-11,45.9,39.4,32.2,35.8,30.9,26.9,88,72,48,30.26,30.09,19,3,19,0.00
2013-3-12,47.6,43.4,38.8,46.7,41.9,36.1,97,95,85,30.09,29.68,24,7,24,0.94
2013-3-13,38.8,35.6,30.1,37.8,28.2,23.4,97,75,57,29.78,29.72,18,6,20,0.00
2013-3-14,30.4,22.4,13.3,24.3,14.7,5.9,87,72,54,29.86,29.69,26,9,26,0.00
2013-3-15,31.4,21.1,10.4,26.2,12.7,3.9,94,71,43,29.89,29.63,26,7,28,0.00
2013-3-16,27.0,21.8,16.8,19.5,13.0,8.4,89,70,50,29.92,29.74,18,5,18,0.00
2013-3-17,23.9,19.0,13.2,12.9,6.7,-0.4,87,60,40,30.35,29.91,35,8,35,0.00
2013-3-18,32.3,20.9,10.1,18.5,2.0,-2.1,78,45,26,30.47,30.24,23,3,23,0.00
2013-3-19,27.2,24.5,22.3,25.1,22.5,18.5,94,92,78,30.24,29.72,45,12,51,0.00
2013-3-20,30.2,24.5,21.0,22.2,19.5,15.9,95,81,65,29.80,29.71,32,9,32,0.00
2013-3-21,34.0,25.8,18.7,17.1,13.4,7.8,83,61,34,29.81,29.65,16,5,16,0.00
2013-3-22,23.4,21.6,20.7,16.4,15.5,14.0,82,77,67,29.70,29.68,7,4,7,0.00
2013-5-11,60.5,58.3,57.1,58.3,56.8,55.3,96,95,92,29.67,29.64,15,4,21,0.22
2013-5-12,58.9,51.4,40.0,55.5,41.4,23.9,95,71,35,29.77,29.57,25,7,25,0.00
2013-5-13,46.1,40.2,36.1,30.2,27.9,25.6,72,62,50,29.96,29.77,28,11,32,0.00
2013-5-14,51.4,46.7,37.0,35.0,27.3,24.5,85,48,36,30.10,29.99,22,5,22,0.00
2013-5-15,61.3,50.7,41.7,49.6,38.1,25.0,96,66,32,30.06,29.65,20,5,24,0.12
2013-5-16,70.8,59.0,48.5,49.5,41.1,33.6,96,56,26,29.83,29.62,37,9,37,0.00
2013-5-17,61.5,51.8,43.3,41.7,38.2,34.1,83,62,37,30.23,29.83,19,4,22,0.00
2013-5-18,68.2,56.2,44.1,43.8,37.8,26.8,78,53,26,30.30,30.22,14,2,15,0.00
2013-5-19,65.8,56.1,51.9,51.7,50.6,49.1,96,83,56,30.24,30.16,20,4,20,0.20
2013-5-20,67.6,60.0,52.4,61.3,56.9,51.1,96,90,79,30.16,29.96,16,4,16,0.01
2013-5-21,77.5,61.1,48.7,66.1,56.6,47.4,96,86,63,30.07,29.83,36,7,36,0.44
2013-5-22,69.0,55.4,48.2,64.4,53.9,47.2,98,95,82,29.94,29.84,27,6,27,0.35
2013-5-23,73.1,61.7,51.6,67.3,58.3,-99.9,98,91,74,29.87,29.72,22,1,26,0.05
2013-5-24,64.0,52.1,41.8,61.9,50.8,40.8,98,95,91,29.89,29.60,20,4,20,0.37
2013-5-25,41.9,40.1,36.4,41.3,39.4,35.6,98,97,96,29.89,29.83,22,4,22,0.62
2013-5-26,46.9,42.8,37.3,39.7,38.2,36.3,97,84,73,30.11,29.86,27,8,27,0.22
2013-5-27,63.2,51.8,40.0,40.5,36.2,31.8,90,59,33,30.19,30.09,27,6,27,0.00
2013-5-28,71.0,59.2,48.3,45.9,39.8,33.5,71,50,27,30.24,30.12,18,3,18,0.00
2013-5-29,60.9,55.0,49.8,60.3,52.4,43.1,98,91,62,30.13,29.97,23,3,23,0.40
2013-5-30,81.4,71.1,60.9,64.9,62.5,59.9,98,76,55,30.08,30.00,19,6,19,0.00
2013-5-31,87.2,77.8,69.0,68.0,62.2,54.5,77,61,34,30.05,29.88,20,6,20,0.00
2013-6-1,87.0,78.7,72.1,67.4,63.9,58.5,76,61,39,29.91,29.77,22,6,22,0.00
2013-6-2,86.0,72.3,63.1,70.3,65.0,-99.9,97,80,56,29.78,29.59,46,2,46,0.83
2013-6-3,71.7,64.0,53.0,62.2,55.2,45.3,93,75,47,29.81,29.73,20,6,20,0.00
2013-6-4,62.7,53.2,45.2,45.4,42.1,38.3,80,66,49,30.11,29.81,23,6,23,0.00
2013-6-5,69.0,57.4,47.9,44.4,40.4,31.4,82,56,33,30.20,30.09,14,2,14,0.00
2013-6-6,69.5,59.6,51.8,54.3,45.8,36.3,90,62,38,30.18,30.07,20,4,20,0.03
2013-6-7,54.2,49.2,46.5,51.4,47.5,44.8,97,94,87,30.08,29.88,33,10,33,0.53
2013-6-8,63.7,55.9,49.0,58.2,53.5,48.2,98,92,79,30.03,29.74,18,4,18,0.21
2013-6-9,71.5,62.7,54.8,56.2,53.6,50.1,96,74,49,30.17,30.02,19,5,19,0.00
2013-6-10,68.8,60.6,54.0,58.0,53.7,44.3,96,79,45,30.20,29.98,25,3,25,0.15
2013-6-11,54.4,52.7,50.6,53.6,51.8,49.8,97,97,96,29.98,29.58,35,10,35,0.75
2013-6-12,60.1,54.9,51.3,53.9,51.7,50.3,98,89,76,29.85,29.59,22,4,22,0.05
2013-6-13,62.9,56.7,51.1,56.9,52.1,47.3,97,85,59,29.83,29.70,12,2,12,0.15
2013-6-14,72.7,60.9,51.6,58.1,51.5,42.9,98,75,38,29.82,29.67,16,2,16,0.00
2013-6-15,70.0,62.2,53.2,50.9,44.6,38.6,72,54,35,29.93,29.81,20,4,20,0.00
2013-6-16,68.5,61.8,58.6,58.4,51.4,44.3,94,70,54,29.92,29.68,19,5,19,0.03
2013-6-17,73.0,65.3,58.4,60.0,57.9,56.1,94,78,57,29.89,29.78,21,5,21,0.04
2013-6-18,59.9,55.8,53.8,56.7,53.5,51.3,96,92,82,29.98,29.87,8,1,8,0.08
2013-6-19,68.2,57.2,46.3,52.6,46.1,40.6,97,70,41,30.18,29.95,13,2,13,0.01
2013-6-20,74.3,62.5,50.1,51.7,46.2,37.8,80,58,30,30.26,30.17,13,3,13,0.00
2013-6-21,77.5,68.5,57.5,56.7,52.6,48.1,85,59,41,30.23,30.18,15,4,15,0.00
2013-6-22,77.5,69.9,62.9,65.2,59.5,50.8,96,70,49,30.20,30.06,16,3,16,0.04
2013-6-23,83.2,71.2,63.5,72.8,66.3,61.6,95,85,68,30.10,29.92,24,4,24,0.62
2013-6-24,84.7,73.5,67.6,70.5,66.2,61.0,91,79,56,29.97,29.86,27,6,28,0.05
2013-6-25,84.0,71.7,65.6,70.8,65.7,62.8,97,83,54,29.91,29.70,28,6,28,0.59
2013-6-26,72.0,66.9,64.1,68.3,65.0,62.4,97,94,77,29.81,29.70,13,2,13,0.29
2013-6-27,74.7,67.6,62.6,69.1,65.0,61.6,98,92,80,29.80,29.71,25,5,25,0.00
2013-6-28,74.5,62.8,55.3,68.6,61.3,54.7,98,95,81,29.71,29.44,44,10,44,0.54
2013-6-29,78.5,69.9,63.2,67.9,64.3,60.6,98,83,60,29.65,29.47,23,4,23,0.02
2013-6-30,80.0,70.4,64.5,68.5,65.1,62.1,96,84,63,29.89,29.65,14,4,14,0.13
2013-7-1,73.6,68.7,65.8,69.6,66.9,63.6,97,94,85,30.01,29.89,17,2,17,0.63
2013-7-2,78.7,67.1,60.6,72.8,64.9,59.7,98,93,78,30.14,30.06,24,6,24,1.41
2013-7-3,82.7,71.6,59.7,71.9,67.1,59.0,98,87,66,30.16,30.08,16,5,16,0.23
2013-7-4,86.3,76.9,70.9,73.9,70.4,68.3,96,81,58,30.15,30.02,17,5,17,0.27
2013-7-5,86.5,76.9,70.9,73.6,70.6,68.3,96,82,55,30.11,29.99,18,5,20,0.00
2013-7-6,81.3,74.8,69.4,70.6,67.8,63.5,95,79,57,30.03,29.96,19,6,19,0.02
2013-7-7,82.2,74.2,68.8,71.5,66.6,61.3,93,77,63,30.00,29.87,13,3,13,0.07
2013-7-8,77.7,70.1,66.0,72.1,68.0,65.1,97,93,73,30.02,29.88,12,2,15,0.20
2013-7-9,76.1,68.0,62.9,69.8,65.4,62.3,98,92,78,30.07,30.00,17,4,17,0.01
2013-7-10,77.6,68.8,64.2,72.4,67.1,63.6,98,95,82,30.03,29.74,20,5,20,1.23
2013-7-11,78.0,71.5,63.4,69.5,65.0,58.9,97,81,58,29.97,29.72,14,3,14,0.00
2013-7-12,80.3,67.8,57.8,63.1,59.3,55.8,94,76,51,30.20,29.96,14,2,14,0.00
2013-7-13,76.0,68.2,60.6,68.0,62.3,56.6,95,82,68,30.30,30.20,13,2,13,0.00
2013-7-14,81.0,74.3,66.8,71.4,68.4,65.3,96,83,66,30.29,30.19,11,2,11,0.00
2013-7-15,86.1,77.4,68.1,71.8,67.4,63.6,96,73,50,30.19,30.08,15,3,15,0.00
2013-7-16,85.0,77.4,70.4,70.6,66.8,64.0,81,70,58,30.16,30.10,11,2,11,0.00
2013-7-17,87.4,78.8,68.7,72.3,68.6,64.4,87,72,52,30.14,29.92,18,4,18,0.00
2013-7-18,85.3,75.0,69.3,72.7,70.0,67.5,96,85,57,29.98,29.89,16,3,16,0.59
2013-7-19,87.4,78.5,69.0,75.4,70.6,66.7,97,78,59,29.90,29.65,30,7,30,0.17
2013-7-20,79.6,73.2,67.6,68.7,65.8,63.1,89,78,68,29.77,29.61,22,7,22,0.01
2013-7-21,76.5,68.9,62.3,65.0,60.9,56.9,96,77,55,29.98,29.77,11,1,11,0.00
2013-7-22,74.5,65.2,57.2,67.3,61.6,54.2,96,88,78,30.01,29.86,21,5,21,0.02
2013-7-23,74.0,65.5,61.1,68.2,63.4,60.2,98,93,81,29.86,29.54,20,5,20,1.30
2013-7-24,70.8,64.8,50.1,66.5,59.5,45.6,93,83,70,29.99,29.56,20,5,20,0.00
2013-7-25,67.8,58.0,47.6,57.8,51.3,44.5,90,79,61,30.12,29.98,8,1,8,0.00
2013-7-26,69.3,61.6,56.4,62.1,58.0,55.3,97,88,74,30.10,29.97,13,2,13,0.00
2013-7-27,78.7,67.6,57.0,62.5,58.4,53.2,94,74,43,30.04,29.95,12,3,12,0.00
2013-7-28,78.0,67.9,60.8,67.8,62.7,58.8,97,84,54,29.99,29.92,20,3,20,0.02
2013-7-29,76.8,68.9,63.6,66.1,61.7,54.3,97,79,60,30.04,29.94,19,3,19,0.03
2013-7-30,73.2,65.4,58.4,57.9,55.3,52.1,85,70,53,30.09,30.03,14,3,14,0.00
2013-7-31,76.7,67.4,57.1,60.3,57.5,51.9,92,72,49,30.13,30.01,11,3,11,0.00
2013-8-1,75.9,66.4,59.7,63.3,60.0,54.8,95,81,61,30.02,29.81,17,3,17,0.40
2013-8-2,69.7,62.9,61.2,63.6,60.9,60.2,97,94,76,29.82,29.76,14,4,14,0.04
2013-8-3,71.5,65.0,56.8,59.5,55.7,52.3,96,73,54,29.82,29.75,24,7,24,0.22
2013-8-4,67.0,61.5,57.4,59.0,55.4,52.8,90,81,68,29.83,29.79,15,4,15,0.20
2013-8-22,80.7,72.1,65.0,65.7,62.8,60.1,96,74,51,29.99,29.77,8,5,0,0.25
2013-8-23,70.4,63.0,54.8,63.6,55.5,48.7,97,78,50,30.15,29.81,6,3,0,0.01
2013-8-24,54.4,52.8,50.6,48.8,48.4,47.8,90,85,81,30.20,30.15,1,0,0,0.00
2013-8-25,65.6,58.1,53.7,56.3,51.3,50.1,90,78,70,30.35,30.30,4,2,0,0.00
2013-8-28,79.0,71.5,62.0,72.0,66.3,60.8,97,84,67,29.95,29.82,24,3,24,1.72
2013-8-29,70.0,63.5,60.0,64.2,61.1,59.1,98,92,80,30.04,29.93,17,5,17,0.00
2013-8-30,79.3,68.2,60.0,67.3,63.1,59.1,98,85,60,30.00,29.78,16,4,16,0.00
2013-8-31,74.9,70.0,65.8,71.0,67.2,63.3,97,91,84,29.79,29.72,14,3,14,0.22
2013-9-1,79.5,71.6,67.1,69.6,67.7,65.1,97,88,66,29.84,29.75,13,3,13,0.00
2013-9-2,75.2,68.8,65.2,70.8,67.1,64.0,97,95,85,29.82,29.66,16,3,17,0.43
2013-9-3,69.4,64.2,59.0,63.9,60.7,55.9,97,89,72,29.79,29.67,15,3,15,0.01
2013-9-4,70.7,63.6,57.2,58.3,56.2,51.8,95,78,56,29.90,29.79,19,5,19,0.00
2013-9-5,61.1,55.9,46.9,57.7,46.7,35.8,97,74,41,30.15,29.84,20,2,20,0.05
2013-9-6,63.1,52.7,43.9,45.4,40.6,-99.9,83,65,47,30.25,30.07,15,1,15,0.00
2013-9-7,64.5,58.2,52.3,52.6,47.6,43.7,85,68,53,30.08,29.84,20,7,20,0.04
2013-9-8,58.8,55.2,47.6,54.6,45.6,37.7,95,71,51,30.09,29.75,25,5,25,0.00
2013-9-9,65.4,53.8,42.8,50.3,43.6,38.1,86,69,50,30.22,30.09,16,4,16,0.00
2013-9-10,70.8,62.4,50.9,68.4,59.4,48.3,97,90,74,30.11,30.00,13,3,13,0.26
2013-9-11,86.4,76.4,66.7,73.8,69.7,63.9,97,81,59,30.04,29.88,46,6,46,0.18
2013-9-12,78.5,69.1,63.1,71.6,65.3,61.1,97,88,78,29.91,29.61,36,4,36,0.68
2013-9-13,63.4,57.5,51.1,62.1,56.5,49.7,97,96,94,29.79,29.58,15,3,15,0.46
2013-9-14,56.2,51.7,48.1,51.4,49.0,47.3,97,91,79,30.07,29.78,15,3,15,0.00
2013-9-15,64.3,53.3,43.3,51.3,47.4,42.4,98,82,56,30.16,30.01,16,4,16,0.01
2013-9-16,56.4,50.5,37.5,52.2,45.5,33.7,94,83,66,30.30,29.99,20,4,20,0.06
2013-9-17,59.8,47.4,35.9,44.8,38.9,33.2,91,74,51,30.47,30.29,12,2,12,0.00
2013-9-18,67.9,55.6,43.2,51.0,45.1,40.1,94,69,44,30.35,30.14,12,4,12,0.00
2013-9-19,73.3,61.4,51.3,53.9,48.8,41.5,84,65,36,30.15,30.03,11,3,11,0.00
2013-9-20,76.3,63.7,52.0,59.3,54.1,49.1,91,72,48,30.09,29.96,14,2,14,0.00
2013-9-21,70.3,61.9,52.3,61.1,55.9,48.3,96,82,49,29.97,29.63,26,4,26,0.04
2013-9-22,64.1,54.9,43.5,61.5,51.4,40.8,96,88,74,29.84,29.55,24,6,24,0.47
2013-9-23,48.9,43.7,39.9,41.3,38.9,36.6,95,83,72,30.04,29.84,25,5,25,0.00
2013-9-24,57.9,46.6,42.5,42.4,39.4,37.8,87,77,51,30.02,29.89,22,6,22,0.00
2013-9-25,61.1,53.6,46.3,51.1,47.4,43.3,91,80,68,30.01,29.91,16,2,16,0.00
2013-9-26,61.8,50.9,43.5,50.5,45.8,42.2,96,83,62,30.17,30.01,11,2,18,0.00
2013-9-27,63.1,53.4,48.2,52.6,49.1,46.3,95,86,68,30.29,30.16,8,1,8,0.00
2013-9-28,70.2,57.1,47.2,55.8,50.2,46.4,97,80,51,30.37,30.25,10,2,10,0.00
2013-9-29,69.2,57.7,49.8,55.5,50.7,45.6,95,78,55,30.26,30.08,14,2,14,0.00
2013-9-30,68.3,57.2,47.5,52.8,47.9,42.6,88,72,56,30.10,29.97,8,1,17,0.00
2013-10-1,72.1,60.1,50.1,57.9,52.9,47.9,94,78,59,29.99,29.86,10,2,10,0.00
2013-10-2,71.5,63.8,56.8,60.1,55.6,50.9,85,75,62,29.94,29.82,20,7,21,0.00
2013-10-3,70.0,61.5,54.4,52.9,48.9,44.8,78,64,46,30.07,29.94,11,3,11,0.00
2013-10-4,63.6,56.4,48.7,53.9,50.7,46.3,93,81,67,30.09,30.03,6,1,6,0.00
2013-10-5,60.0,56.5,53.4,53.1,51.1,45.3,92,82,66,30.13,30.06,7,1,7,0.00
2013-10-6,55.8,48.9,44.8,51.9,45.5,40.3,97,89,67,30.20,30.12,34,9,34,0.17
2013-10-7,66.3,55.2,48.5,64.4,54.4,47.7,98,97,92,30.14,29.71,42,7,42,0.36
2013-10-27,45.6,40.8,36.3,34.7,30.7,27.1,79,68,53,30.06,29.81,12,6,0,0.00
2013-10-28,46.8,37.8,30.1,36.2,28.9,20.1,81,70,60,30.40,30.06,15,8,0,0.00
2013-10-29,41.2,32.4,24.6,23.4,19.9,15.0,83,61,38,30.50,30.39,4,2,0,0.00
2013-10-30,42.0,36.1,30.0,35.9,27.5,15.6,92,72,46,30.39,30.25,8,4,0,0.00
2013-10-31,57.2,47.2,37.2,55.5,44.6,34.5,96,91,83,30.29,29.74,10,5,0,0.19
2013-11-1,61.6,56.9,50.5,50.1,43.8,41.1,72,62,52,29.62,29.41,33,11,33,0.26
2013-11-2,54.9,49.4,36.3,43.6,41.1,31.6,88,74,63,29.80,29.59,19,5,19,0.00
2013-11-3,36.3,31.4,27.5,31.9,26.1,19.0,86,81,69,30.13,29.80,21,7,21,0.00
2013-11-4,34.9,31.8,29.3,15.6,14.5,13.5,55,48,42,30.73,30.66,11,3,11,0.00
2013-11-5,45.8,36.4,28.1,33.0,24.3,14.8,79,62,52,30.73,30.49,15,3,15,0.00
2013-11-6,54.4,46.1,36.6,44.7,39.2,30.9,88,77,66,30.50,29.96,25,5,25,0.00
2013-11-7,54.1,46.0,32.5,50.8,42.6,23.8,96,88,70,29.96,29.68,31,7,31,0.13
2013-11-8,35.7,31.4,28.6,30.7,25.2,21.1,95,78,70,29.95,29.81,20,6,20,0.00
2013-11-9,36.6,34.5,32.1,29.8,25.1,20.8,90,69,54,30.20,30.00,18,4,21,0.00
2013-11-10,42.2,35.6,31.3,37.6,33.4,29.5,97,92,81,30.00,29.73,27,6,27,0.10
2013-11-11,41.5,35.9,30.8,31.7,27.9,24.5,90,73,53,30.09,29.87,26,7,26,0.00
2013-11-12,39.2,25.7,21.9,34.2,19.2,14.5,95,77,63,30.22,29.87,25,9,25,0.00
2013-11-13,27.5,22.2,16.1,20.2,12.8,8.5,82,68,45,30.32,30.12,26,8,26,0.00
2013-11-14,41.2,36.8,27.6,28.9,24.4,19.0,73,61,44,30.12,30.07,21,8,21,0.00
2013-11-15,51.7,44.0,38.2,20.1,17.5,14.8,44,35,26,30.20,30.09,19,6,19,0.00
2013-11-16,55.2,47.5,41.1,32.4,24.7,17.5,58,41,32,30.30,30.17,13,3,13,0.00
2013-11-17,47.0,43.3,39.9,46.2,38.7,31.5,97,85,56,30.28,29.80,27,7,27,0.05
2013-11-18,54.4,48.5,39.9,53.5,41.9,28.8,98,79,56,29.80,29.47,35,9,35,0.41
2013-11-19,39.9,29.5,24.4,30.5,19.5,14.7,82,66,59,30.34,29.62,35,12,37,0.00
2013-11-20,32.9,26.0,20.5,16.8,14.7,11.9,80,63,46,30.67,30.34,17,4,17,0.00
2013-11-21,41.1,31.2,21.1,27.9,14.6,-0.9,74,54,17,30.68,30.37,16,4,18,0.00
2013-11-22,41.4,36.8,32.6,40.3,34.5,27.3,97,92,70,30.38,29.82,17,3,17,0.15
2013-11-23,41.1,29.1,18.7,39.9,24.2,15.0,96,83,53,29.94,29.77,30,9,30,0.00
2013-11-24,18.6,14.0,10.2,15.6,3.4,-5.4,88,63,47,30.23,29.80,43,14,43,0.00
2013-11-25,25.2,16.5,6.7,14.0,2.1,-6.9,63,53,34,30.41,30.23,20,6,20,0.00
2013-11-26,31.3,27.4,23.7,28.0,23.4,13.2,95,85,59,30.33,30.06,22,5,22,0.00
2013-11-27,48.4,36.8,28.5,47.9,36.1,27.8,98,97,95,30.06,29.32,38,9,38,0.74
2013-11-28,28.5,19.8,13.4,27.8,13.4,6.8,97,77,57,30.43,29.45,31,10,31,0.00
2013-11-29,21.2,14.7,9.6,9.7,7.0,5.5,87,72,52,30.80,30.43,16,4,16,0.00
2013-11-30,25.0,17.2,7.7,15.4,8.9,4.5,88,71,45,30.85,30.44,18,2,18,0.00
2013-12-1,34.9,30.2,24.6,31.3,26.7,15.2,96,87,67,30.44,30.06,14,3,14,0.00
2013-12-2,34.7,31.6,28.9,33.5,30.7,28.2,97,96,93,30.06,29.92,6,1,8,0.00
2013-12-3,31.3,29.8,28.8,30.4,29.0,28.0,97,97,97,29.97,29.94,7,1,7,0.00
2013-12-4,35.5,32.9,29.5,27.3,26.0,24.9,83,75,69,30.21,30.11,14,3,14,0.00
2013-12-5,49.7,37.2,31.4,49.2,34.2,25.0,98,89,74,30.22,29.90,30,5,30,0.00
2013-12-6,49.2,38.0,28.5,48.7,35.9,25.9,98,92,83,30.14,29.89,16,5,16,0.37
2013-12-7,28.6,26.4,21.1,27.6,22.4,14.9,96,85,68,30.46,30.08,26,5,26,0.00
2013-12-8,23.1,20.6,18.7,15.9,12.7,11.0,83,71,62,30.60,30.45,12,3,12,0.00
2013-12-9,32.0,24.5,19.2,30.3,21.4,10.6,97,88,64,30.51,29.90,27,7,27,0.00
2013-12-10,31.7,26.2,18.1,29.1,19.5,8.4,91,75,59,29.94,29.77,22,8,27,0.00
2013-12-11,23.6,20.1,14.3,17.6,12.4,8.7,92,73,53,30.16,29.94,28,9,28,0.00
2013-12-12,14.4,9.8,4.5,11.8,4.9,-1.8,90,81,55,30.30,30.02,20,4,20,0.00
2013-12-13,16.4,12.6,4.2,12.7,7.7,-2.5,91,81,72,30.32,29.94,26,8,26,0.00
2013-12-14,9.2,2.0,-4.9,6.6,-4.9,-99.9,89,75,53,30.65,30.24,40,0,40,0.00
2013-12-15,21.5,17.0,9.2,18.8,14.4,6.6,93,89,81,30.24,29.56,54,10,54,0.00
2013-12-16,19.2,13.2,-2.2,15.9,5.3,-7.3,90,71,50,30.23,29.72,31,9,36,0.00
2013-12-17,9.4,1.4,-6.2,6.6,-3.4,-11.6,90,80,67,30.31,30.15,19,3,19,0.00
2013-12-18,24.1,16.4,8.1,20.1,13.1,5.7,91,86,78,30.09,29.98,20,4,20,0.00
2013-12-19,34.2,28.9,23.1,28.4,23.0,20.0,93,79,65,30.10,29.94,22,7,22,0.00
2013-12-20,43.7,38.4,34.0,40.3,32.9,28.3,90,80,69,30.11,29.91,18,4,18,0.01
2013-12-21,53.8,48.0,43.6,49.6,44.7,39.5,97,88,80,29.92,29.83,20,5,20,0.13
2013-12-22,47.9,38.5,32.1,47.0,37.9,31.5,98,98,96,30.01,29.69,32,7,32,0.05
2013-12-23,36.9,32.5,28.6,36.4,32.0,26.3,98,98,92,30.17,29.99,18,2,18,0.01
2013-12-24,28.6,21.3,8.7,26.2,16.0,4.5,91,80,61,30.28,30.10,21,6,21,0.00
2013-12-25,12.9,7.3,0.4,5.0,0.4,-4.7,84,73,63,30.58,30.28,17,4,17,0.00
2013-12-26,26.1,19.4,12.5,23.0,16.0,4.9,95,87,70,30.53,30.16,16,5,16,0.00
2013-12-27,27.2,24.2,22.0,21.1,19.1,16.6,89,81,68,30.28,30.21,22,7,22,0.00
2013-12-28,35.7,31.4,24.0,31.3,26.3,19.8,85,81,74,30.22,30.02,20,7,20,0.00
2013-12-29,39.9,35.4,30.9,31.5,30.5,29.4,97,83,69,30.04,29.60,14,4,14,0.01
2013-12-31,13.7,5.2,-3.0,11.5,0.7,-7.9,92,81,71,30.21,30.09,9,3,0,0.00
2014-1-1,14.5,10.5,4.1,7.5,4.4,0.3,86,76,63,30.44,30.22,13,7,0,0.00
2014-1-2,3.3,-0.1,-2.9,-0.4,-3.4,-6.0,88,86,83,30.43,30.01,3,1,0,0.00